Terminal Aerodrome Forecast
Issued by NWS Hastings, NE

Home | Current Version | Previous Version | Text Only | Print | Product List | Glossary On
Versions: 1 2 3 4 5 6 7 8 9 10 11 12 13 14 15 16 17 18 19 20 21 22 23 24 25 26 27 28 29 30 31 32
000
FTUS43 KGID 192320
TAFGRI
TAF
KGRI 192320Z 2000/2024 19012G18KT P6SM FEW150
     FM200300 VRB06KT P6SM SCT150 WS006/22040KT
     FM201200 01010KT P6SM SCT150
     FM201700 35007KT P6SM FEW150=

USA.gov is the U.S. government's official web portal to all federal, state and local government web resources and services.